Overview Statistics Trail Chart Weather Telemetry Raw packets
 

This is the latest recevied weather packets stored in our database for station/object N6GPM. If no packets are shown the sender has not sent any weather packets the latest 10 day(s).

<< 45 46 47 48 49 50 51 >>
Time Temp. Humidity Pressure Rain* Wind** Luminosity Snow
1788370017 25° C 31% 1020.2 hPa 0 mm - 790 W/m² -
1788369716 25° C 32% 1020.5 hPa 0 mm - 775 W/m² -
1788369411 24.44° C 33% 1020.6 hPa 0 mm - 760 W/m² -
1788369107 24.44° C 33% 1020.5 hPa 0 mm - 743 W/m² -
1788368803 24.44° C 32% 1020.5 hPa 0 mm - 733 W/m² -
1788368498 23.89° C 33% 1020.3 hPa 0 mm - 714 W/m² -
1788368192 23.89° C 32% 1020.3 hPa 0 mm - 695 W/m² -
1788367887 23.89° C 33% 1020.2 hPa 0 mm - 680 W/m² -
1788367582 23.89° C 33% 1020.2 hPa 0 mm - 662 W/m² -
1788367281 23.33° C 33% 1020.3 hPa 0 mm - 644 W/m² -
1788366976 23.33° C 31% 1020.4 hPa 0 mm - 626 W/m² -
1788366675 22.78° C 40% 1020.4 hPa 0 mm - 607 W/m² -
1788366374 22.22° C 40% 1020.4 hPa 0 mm - 592 W/m² -
1788366080 21.67° C 44% 1020.3 hPa 0 mm - 568 W/m² -
1788365764 21.67° C 46% 1020.2 hPa 0 mm - 502 W/m² -
1788365461 21.67° C 47% 1020.3 hPa 0 mm - 532 W/m² -
1788365156 21.11° C 48% 1020.3 hPa 0 mm - 510 W/m² -
1788364851 20.56° C 50% 1020.2 hPa 0 mm - 491 W/m² -
1788364544 20.56° C 51% 1020.1 hPa 0 mm - 272 W/m² -
1788364243 20.56° C 52% 1020.1 hPa 0 mm - 447 W/m² -
1788363939 20.56° C 54% 1020.2 hPa 0 mm - 421 W/m² -
1788363639 20.56° C 55% 1020.2 hPa 0 mm - 401 W/m² -
1788363337 20° C 58% 1020.1 hPa 0 mm - 71 W/m² -
1788363033 19.44° C 57% 1019.8 hPa 0 mm - 69 W/m² -
1788362729 19.44° C 57% 1020 hPa 0 mm - 338 W/m² -

* Rain latest hour (hover to see other rain measurements)
** Current wind speed in m/s (hover to see current wind gust speed)